2020-102C (47298 NORAD) Tracking and Keplerian Element Data
This shows tracking and keplerian element data for the satellite.
Feedback or suggestion? Click here.
Element | Value |
Catalog | 47298 |
Name | 2020-102C |
Epoch Orbit | 1654 |
Epoch Day | 99.89070619 |
Epoch Year | 2021 |
RAAN | 198.6543 |
Inclination | 97.3873 |
Eccentricity | 0.0001296 |
Argument of Perigee | 109.2185 |
Mean Anonmoly | 345.4186 |
Mean Motion | 15.23593209 |
Decay Rate | 1.57E-05 |
L1 | 1 47298U 20102C 21099.89070619 .00001570 00000-0 68537-4 0 9992 |
L2 | 2 47298 97.3873 198.6543 0001296 109.2185 345.4186 15.23593209 16545 |
Live tracking and technical data element details for 2020-102C (NORAD 47298). 2020-102C can be tracked NOW for your location showing map with azimuth and elevation plus other details from your city location.
Track the satellite on the map from your city or location and see movement details for azimuth, elevation, latitude, longitude, range, height, and movement on the map or in text.
IsCatalogInMostPopularTable: catalog: 47298, numindb: 35
Update: records affected: 1
GetName: 47298 2020-102C
Hit Count: updated at: Sat, 10 Apr 2021 19:44:49 GMT